Location: Newark
(55.7083°N, 13.1992°E)
Time: 21:35:43
(UTC+00:00)

Transit 4A - Pass Details

Date: 20 February 2020
Orbit: 871 x 973 km, 66.8° (Epoch: 06 April)

Event Time Altitude Azimuth Distance (km) Brightness Sun altitude
Exits shadow 23:53:57 11° 49° (NE) 2,490 10.5 -44.7°
Drops below altitude 10° 23:54:08 10° 49° (NE) 2,551 10.6 -44.7°
Sets 23:56:37 0° 44° (NE) 3,472 11.5 -44.6°
